Find Starlink 35952

NORAD ID: 66520 Int'l Des: 2025-265 Owner: SPXS Country: US Constellation: starlink operational
LEOCIRCULAR

实时位置

正在加载3D地球...

关于 Starlink 35952

正在加载描述...

即将过境

Passes for default location (London). Set your location on the main map for personalized predictions.

高度历史

Loading altitude history...

两行轨道根数

1 66520U 25265E 26105.19137464 .00006206 00000-0 23478-3 0 9999
2 66520 42.9980 71.9883 0000973 265.9946 94.0794 15.27587785 22696
Epoch: Apr 15, 2026 • Age: 6 hours

当前状态

高度 492.9 km
速度 7.62 km/s
星下点 -36.22°S, 56.76°W
发射日期 Nov 19, 2025
运行时间 0.4 years
类型 internet

技术详情

分类 Payload
质量 575.00 kg
干质量 530.00 kg
总质量 575.00 kg
长度 0.30 m
直径 4.10 m
跨度 29.00 m
形状 Box + pan
制造商 SPXS
平台类型 Starlink V2MO
阶段状态 In Orbit
所有者/国家 SPXS/US

Most Searched